Flight Track Log - Related Links

Times and Time Zones

All times are in EDT time to prevent confusion due to time zone crossing. See the KAP927 flight status page for this flight to view local times or setup timezone preferences in your user account.

Time Position Orientation Groundspeed Altitude Reporting Facility
EDT Latitude Longitude Course Direction KTS MPH feet Rate Location/Type
Thu 18:32:24 42.7839 -73.8150 329° Northwest 116 133 1,200  Level Boston Center
Thu 18:33:25 42.8128 -73.8383 329° Northwest 117 135 1,800 595 Climbing Boston Center
Thu 18:34:25 42.8397 -73.8614 328° Northwest 115 132 2,400 545 Climbing Boston Center
Thu 18:35:26 42.8683 -73.8878 326° Northwest 119 137 2,900 541 Climbing Boston Center
Thu 18:36:27 42.8953 -73.9081 331° Northwest 123 142 3,500 595 Climbing Boston Center
Thu 18:37:27 42.9283 -73.9344 330° Northwest 122 140 4,100 472 Climbing Boston Center
Thu 18:38:34 42.9592 -73.9636 325° Northwest 125 144 4,500 443 Climbing Boston Center
Thu 18:39:29 42.9858 -73.9897 324° Northwest 129 148 5,000 522 Climbing Boston Center
Thu 18:40:29 43.0189 -74.0133 332° Northwest 131 151 5,500 446 Climbing Boston Center
Thu 18:41:30 43.0478 -74.0397 326° Northwest 129 148 5,900 541 Climbing Boston Center
Thu 18:42:31 43.0786 -74.0661 328° Northwest 125 144 6,600 590 Climbing Boston Center
Thu 18:43:32 43.1075 -74.0894 329° Northwest 128 147 7,100 496 Climbing Boston Center
Thu 18:44:32 43.1425 -74.1161 331° Northwest 128 147 7,600 450 Climbing Boston Center
Thu 18:45:32 43.1714 -74.1425 326° Northwest 128 147 8,000 450 Climbing Boston Center
Thu 18:46:32 43.2042 -74.1692 329° Northwest 128 147 8,500 250 Climbing Boston Center
Thu 18:47:32 43.2372 -74.1956 330° Northwest 133 153 8,500  Level Boston Center
Thu 18:48:32 43.2764 -74.2281 329° Northwest 149 171 8,500  Level Boston Center
Thu 18:49:32 43.3092 -74.2578 327° Northwest 155 178 8,500  Level Boston Center
Thu 18:51:32 43.3853 -74.3228 328° Northwest 165 190 8,500 33 Level Boston Center
Thu 18:52:32 43.4264 -74.3583 328° Northwest 165 190 8,600  Climbing Boston Center
Thu 18:53:32 43.4633 -74.3911 327° Northwest 165 190 8,500 -50 Descending Boston Center
Thu 18:54:32 43.5025 -74.4208 331° Northwest 165 190 8,500 50 Level Boston Center
Thu 18:55:32 43.5394 -74.4536 327° Northwest 165 190 8,600  Climbing Boston Center
Thu 18:56:32 43.5783 -74.4892 326° Northwest 165 190 8,500 -50 Descending Boston Center
Thu 18:57:32 43.6172 -74.5192 331° Northwest 165 190 8,500  Level Boston Center
Thu 18:58:32 43.6564 -74.5522 329° Northwest 165 190 8,500  Level Boston Center
Thu 18:59:32 43.6933 -74.5822 330° Northwest 165 190 8,500  Level Boston Center
Thu 19:00:32 43.7281 -74.6122 328° Northwest 165 190 8,500 50 Level Boston Center
Thu 19:01:32 43.7669 -74.6481 326° Northwest 165 190 8,600  Climbing Boston Center
Thu 19:02:32 43.8039 -74.6839 325° Northwest 165 190 8,500 -50 Descending Boston Center
Thu 19:03:32 43.8408 -74.7142 329° Northwest 165 190 8,500 50 Level Boston Center
Thu 19:04:32 43.8797 -74.7503 326° Northwest 165 190 8,600 45 Climbing Boston Center
Thu 19:05:44 43.9186 -74.7833 329° Northwest 165 190 8,600  Level Boston Center
Thu 19:06:44 43.9656 -74.8256 327° Northwest 165 190 8,600  Level Boston Center
Thu 19:07:44 44.0067 -74.8619 328° Northwest 165 190 8,600 -100 Level Boston Center
Thu 19:08:44 44.0456 -74.8981 326° Northwest 165 190 8,400 -350 Descending Boston Center
Thu 19:09:44 44.0864 -74.9375 325° Northwest 170 196 7,900 -550 Descending Boston Center
Thu 19:10:44 44.1333 -74.9742 331° Northwest 180 207 7,300 -500 Descending Boston Center
Thu 19:11:44 44.1783 -75.0108 330° Northwest 180 207 6,900 -500 Descending Boston Center
Thu 19:12:44 44.2214 -75.0475 329° Northwest 180 207 6,300 -500 Descending Boston Center
Thu 19:13:44 44.2622 -75.0811 329° Northwest 180 207 5,900 -500 Descending Boston Center
Thu 19:14:44 44.3031 -75.1147 330° Northwest 174 200 5,300 -550 Descending Boston Center
Thu 19:15:44 44.3439 -75.1514 327° Northwest 174 200 4,800 -450 Descending Boston Center
Thu 19:16:44 44.3828 -75.1853 328° Northwest 174 200 4,400 -400 Descending Boston Center
Thu 19:17:44 44.4236 -75.2161 332° Northwest 163 188 4,000 -350 Descending Boston Center
Thu 19:18:44 44.4544 -75.2408 330° Northwest 163 188 3,700 -400 Descending Boston Center
Thu 19:19:44 44.5011 -75.2867 325° Northwest 168 193 3,200 -450 Descending Boston Center
Thu 19:20:44 44.5400 -75.3208 328° Northwest 168 193 2,800 -400 Descending Boston Center

Login

Don't have an account? Register now (free) for customized features, flight alerts, and more!